This demonstration page uses our WeatherBlox Daily Observations layout. Learn more.

Left ArrowRight Arrow

34.74481, -87.66753

Hourly Observations for August 15, 2015

Temp ( °F °C ) Dew Point ( °F °C ) Humidity (%) Winds ( mph kmh ) Pressure ( in mb ) Visibility ( mi km ) Precip ( " mm )
12:53 am 00:53 Mostly Cloudy 72 22.2 69 20.6 91 91 Calm 30.09 1019 9 14 0.00 0.00
1:53 am 01:53 Partly Cloudy 72 22.2 69 20.6 91 91 Calm 30.08 1019 9 14 0.00 0.00
2:53 am 02:53 Clear with Mist and Fog 71 21.7 69 20.6 94 94 Calm 30.07 1018 6 10 0.00 0.00
3:53 am 03:53 Mostly Cloudy with Mist and Fog 72 22.2 69 20.6 91 91 Calm 30.07 1018 6 10 0.00 0.00
4:53 am 04:53 Mostly Clear with Mist and Fog 71 21.7 68 20 90 90 Calm 30.09 1019 6 10 0.00 0.00
5:53 am 05:53 Clear with Mist and Fog 70 21.1 68 20 93 93 Calm 30.10 1019 5 8 0.00 0.00
6:53 am 06:53 Partly Cloudy with Mist and Fog 71 21.7 68 20 90 90 Calm 30.11 1020 5 8 0.00 0.00
7:53 am 07:53 Mostly Cloudy 73 22.8 70 21.1 90 90 ESE 5 7 30.11 1020 7 11 0.00 0.00
8:53 am 08:53 Mostly Cloudy 76 24.4 69 20.6 79 79 SE 6 9 30.12 1020 9 14 0.00 0.00
10:01 am 10:01 Mostly Cloudy with Nearby Thunderstorms 79 26.1 70 21.1 74 74 ENE 5 7 30.15 1021 9 14 0.00 0.00
10:22 am 10:22 Cloudy with Nearby Thunderstorms 76 24.4 68 20 77 77 NNE 10 17 30.15 1021 10 16 0.00 0.00
10:53 am 10:53 Cloudy with Nearby Thunderstorms 74 23.3 66 18.9 76 76 VRB 7 11 30.17 1022 10 16 0.00 0.00
11:35 am 11:35 Mostly Cloudy 73 22.8 67 19.4 81 81 ENE 13 20 30.15 1021 10 16 0.00 0.03
11:53 am 11:53 Mostly Cloudy 74 23.3 66 18.9 76 76 ENE 12 19 30.17 1022 10 16 0.00 0.03
12:22 pm 12:22 Cloudy with Nearby Thunderstorms 72 22.2 66 18.9 82 82 ENE 10 17 30.15 1021 10 16 0.00 0.00
12:53 pm 12:53 Mostly Cloudy 73 22.8 66 18.9 79 79 SE 6 9 30.18 1022 10 16 0.00 0.00
1:12 pm 13:12 Partly Cloudy with Nearby Thunderstorms 72 22.2 67 19.4 84 84 S 7 11 30.15 1021 10 16 0.00 0.00
1:34 pm 13:34 Sunny 72 22.2 67 19.4 84 84 S 7 11 30.12 1020 9 14 0.00 0.00
1:53 pm 13:53 Sunny with Nearby Thunderstorms 72 22.2 67 19.4 84 84 S 5 7 30.14 1021 9 14 0.00 0.00
2:14 pm 14:14 Partly Cloudy 72 22.2 67 19.4 84 84 SE 7 11 30.12 1020 9 14 0.00 0.00
2:53 pm 14:53 Cloudy with Rain 70 21.1 67 19.4 90 90 ESE 9 15 30.14 1021 5 8 0.07 1.78
3:53 pm 15:53 Cloudy with Light Rain 71 21.7 67 19.4 87 87 E 5 7 30.12 1020 9 14 0.06 1.52
4:53 pm 16:53 Sunny 72 22.2 68 20 87 87 E 3 6 30.12 1020 10 16 0.00 0.03
5:53 pm 17:53 Sunny 72 22.2 69 20.6 91 91 ESE 6 9 30.10 1019 9 14 0.00 0.00
6:53 pm 18:53 Sunny 73 22.8 69 20.6 87 87 Calm 30.09 1019 8 13 0.00 0.00
7:53 pm 19:53 Clear 72 22.2 69 20.6 91 91 Calm 30.10 1019 8 13 0.00 0.00
8:53 pm 20:53 Clear with Mist and Fog 72 22.2 69 20.6 91 91 Calm 30.10 1019 6 10 0.00 0.00
9:53 pm 21:53 Partly Cloudy with Mist and Fog 70 21.1 68 20 93 93 E 3 6 30.12 1020 5 8 0.00 0.00
10:53 pm 22:53 Mostly Cloudy 71 21.7 68 20 90 90 Calm 30.11 1020 7 11 0.00 0.00
11:53 pm 23:53 Clear with Mist and Fog 71 21.7 68 20 90 90 Calm 30.12 1020 5 8 0.00 0.00

Powered by AerisWeather